INSAT-3D

Last updated on Nov. 21, 2019, 4:15 a.m. UTC

1 39216U 13038B   19324.71715216 -.00000157  00000-0  00000+0 0  9998
2 39216   0.0093 342.8204 0001245 273.5039 143.3809  1.00271032 23233
UTC
Height (km)
Latitude
Longitude
Inclination
Orbital Period
UTC large
Height (km)
Speed (km/s)
/
Latitude / Longitude
Inclination (degrees)
Orbital Period (minutes)
Azimuth
Elevation
Range (km)
Doppler Factor
iOS Compass Heading
iOS Angle

Next 30 passes for location: Hong Kong

Rise time Rise Azimuth (degrees) Set time Set Azimuth (degrees) Duration Max altitude (degrees)

No matching passes for this satellites